Regional Weather Roundup
Issued by NWS

Home | Current Version | Previous Version | Graphics & Text | Print | Product List | Glossary On
Versions: 1 2 3 4 5 6 7 8 9 10 11 12 13 14 15 16 17 18 19 20 21 22 23 24 25 26 27 28 29 30 31 32 33 34 35 36 37 38 39 40 41 42 43 44 45 46 47 48 49 50
000
ASUS43 KIND 251409
RWRIN

WEATHER ROUNDUP FOR INDIANA
NATIONAL WEATHER SERVICE INDIANAPOLIS IN
1000 AM EDT WED APR 25 2018

NOTE: "FAIR" INDICATES FEW OR NO CLOUDS BELOW 12,000 FEET WITH NO
SIGNIFICANT WEATHER AND/OR OBSTRUCTIONS TO VISIBILITY.

* - STATION DOES NOT REPORT WEATHER SUCH AS PRECIPITATION OR FOG.

+ - STATION NOT QUALITY CONTROLLED BY THE NATIONAL WEATHER SERVICE.
    USE DATA WITH CAUTION...ESPECIALLY DEWPOINT AND RELATIVE
    HUMIDITY OBSERVATIONS.

INZ001>003-010>013-019-020-251500-
NORTHWEST INDIANA

CITY           SKY/WX    TMP DP  RH WIND       PRES   REMARKS
GARY /AIRPORT/ MOSUNNY   45  36  70 N15       30.11R
KNOX *+        FAIR      48  36  61 N18G25    30.04S
LA PORTE +     FAIR      47  36  64 N13G18    30.06S
MICHIGAN CITY+ FAIR      43  36  75 N13       30.09R
MONTICELLO +   CLOUDY    48  41  77 N12G17    30.03S
RENSSELAER +   FAIR      46  32  57 N14G20    30.06S
VALPARAISO     FAIR      49  36  61 N10G21    30.07R

$$

LMZ046-743>745-251500-
SOUTHERN LAKE MICHIGAN

STATION/POSITION TIME  TEMP    WIND        PRES    WAVE
                       AIR SEA DIR/SP/G            HT
                 (UTC) (F)     (DEG/KT/KT) (MB)    (FT)
BURNS HARBOR     1340   40     360/ 13/ 16 1019.6R
MICHIGAN CITY    1340   40     350/ 19/ 21   N/A

$$

INZ004-005-014>016-021>024-251500-
NORTH CENTRAL INDIANA

CITY           SKY/WX    TMP DP  RH WIND       PRES   REMARKS
ELKHART        FAIR      52  39  62 N8        30.03R
GOSHEN         CLOUDY    50  43  77 N13       30.01R
LOGANSPORT +   PTSUNNY   50  45  81 N13       30.03S
PERU/GRISSOM   CLOUDY    50  50 100 NW14      30.00S
ROCHESTER +    CLOUDY    52  45  76 N10       30.03R
SOUTH BEND     FAIR      49  36  61 N14       30.05R
WARSAW +       CLOUDY    50  46  87 N9        30.01R

$$

INZ006>009-017-018-025>027-251500-
NORTHEAST INDIANA

CITY           SKY/WX    TMP DP  RH WIND       PRES   REMARKS
ANGOLA *+      CLOUDY    48  43  81 N10G17    29.99R
AUBURN +       PTSUNNY   52  46  82 N13       29.99R
FORT WAYNE     CLOUDY    56  49  77 N16       29.97F
HUNTINGTON +   CLOUDY    54  50  87 N7        29.98S
KENDALLVILLE + CLOUDY    49  43  79 N14       29.99S

$$

INZ028-029-035-036-043>045-051>053-251500-
WEST CENTRAL INDIANA

CITY           SKY/WX    TMP DP  RH WIND       PRES   REMARKS
CRAWFORDSVL +  FOG       44  44 100 N8        30.04S VSB 1
GREENCASTLE +  CLOUDY    48  46  93 N8        30.03R FOG
LAFAYETTE      CLOUDY    48  43  82 N9        30.04S
TERRE HAUTE    CLOUDY    51  49  92 N9        30.04R FOG

$$

INZ030>032-037>040-046>048-054>057-064-065-251500-
CENTRAL INDIANA

CITY           SKY/WX    TMP DP  RH WIND       PRES   REMARKS
ANDERSON       CLOUDY    54  50  87 N12G23    29.99S
COLUMBUS       CLOUDY    54  48  82 NW10      29.99R
FISHERS *+     CLOUDY    50  50 100 N8        30.01R
FRANKFORT +    FOG       49  48  97 N9        30.04S VSB 1/4
GREENWOOD *+   CLOUDY    52  50  92 N13       30.01S
INDIANAPOLIS   PTSUNNY   53  50  89 N14       30.02R FOG
-EAGLE CREEK   PTSUNNY   52  49  89 NW9       30.01R
KOKOMO +       CLOUDY    51  49  92 NW13      30.02R FOG
MARION +       CLOUDY    53  50  88 CALM      30.00S
MT COMFORT *+  CLOUDY    52  52 100 N12       30.00S
SHELBYVILLE    CLOUDY    55  50  83 NW10      29.98F
ZIONSVILLE +   CLOUDY    48  48 100 N10       30.02S FOG

$$

INZ033-034-041-042-049-050-058-059-251500-
EAST CENTRAL INDIANA

CITY           SKY/WX    TMP DP  RH WIND       PRES   REMARKS
MUNCIE         CLOUDY    56  50  80 N13       29.98S
RICHMOND +     CLOUDY    50  50 100 N12       29.97S FOG

$$

INZ060-061-067>069-081>083-085>088-251500-
SOUTHWEST INDIANA

CITY           SKY/WX    TMP DP  RH WIND       PRES   REMARKS
EVANSVILLE     FAIR      59  54  83 N8        30.02F
HUNTINGBURG +  FAIR      57  52  83 N13       30.01F
WASHINGTON +   FAIR      56  51  85 N8        30.02S

$$

INZ062-063-066-070>080-084-089>092-251500-
SOUTH CENTRAL AND SOUTHEAST INDIANA

CITY           SKY/WX    TMP DP  RH WIND       PRES   REMARKS
BATESVILLE +   CLOUDY    54  54 100 MISG      29.97R
BEDFORD +      PTSUNNY   54  50  87 N3        29.99  FOG
BLOOMINGTON    FAIR      55  51  86 N9        30.01R
FRENCH LICK *+ CLOUDY    54 N/A N/A CALM      30.01S
MADISON *+     CLOUDY    54  50  87 NW9       30.00R
NORTH VERNON + CLOUDY    54  50  87 N9        29.98S
SEYMOUR +      PTSUNNY   57  52  82 N10       29.99S

$$




USA.gov is the U.S. government's official web portal to all federal, state and local government web resources and services.